Location: Ferchesar
(52.6477°N, 12.4298°E)
Time: 08:29:18
(UTC+02:00)

ISS - Visible Passes

Search period start: 15 May 2021 00:00
Search period end: 25 May 2021 00:00
Orbit: 417 x 422 km, 51.6° (Epoch: 14 May)

Date Brightness Start Highest point End Pass type
(mag) Time Alt. Az. Time Alt. Az. Time Alt. Az.
15 May -3.9 00:28:04 10° WSW 00:31:25 65° SSE 00:34:47 10° E visible
15 May -3.9 02:04:47 10° W 02:08:09 70° S 02:11:32 10° ESE visible
15 May -2.9 03:41:42 10° W 03:44:41 29° SSW 03:47:40 10° SE visible
15 May -2.3 22:05:16 10° S 22:07:40 18° SE 22:10:05 10° E visible
15 May -3.7 23:40:42 10° WSW 23:44:00 54° SSE 23:47:19 10° E visible
16 May -3.9 01:17:20 10° W 01:20:43 75° S 01:24:06 10° E visible
16 May -3.3 02:54:10 10° W 02:57:20 39° SSW 03:00:31 10° SE visible
16 May -3.5 22:53:24 10° SW 22:56:37 43° SSE 22:59:51 10° E visible
17 May -3.9 00:29:54 10° W 00:33:16 76° S 00:36:40 10° E visible
17 May -3.6 02:06:41 10° W 02:09:58 49° SSW 02:13:15 10° ESE visible
17 May -2.1 03:44:06 10° WSW 03:46:14 16° SW 03:48:23 10° S visible
17 May -3.1 22:06:11 10° SW 22:09:15 33° SSE 22:12:21 10° E visible
17 May -3.9 23:42:28 10° WSW 23:45:50 73° S 23:49:12 10° E visible
18 May -3.8 01:19:13 10° W 01:22:33 60° SSW 01:22:52 57° SSE visible
18 May -3.8 22:55:03 10° WSW 22:58:23 65° S 23:01:45 10° E visible
19 May -3.9 00:31:46 10° W 00:35:08 70° S 00:36:26 34° ESE visible
19 May -1.6 02:08:40 10° W 02:09:22 14° W 02:09:22 14° W visible
19 May -3.6 22:07:40 10° WSW 22:10:58 55° SSE 22:14:16 10° E visible
19 May -3.9 23:44:18 10° W 23:47:40 75° S 23:50:15 16° E visible
20 May -2.6 01:21:07 10° W 01:23:10 29° WSW 01:23:10 29° WSW visible
20 May -3.9 22:56:50 10° W 23:00:13 76° S 23:03:36 10° E visible
21 May -3.6 00:33:37 10° W 00:36:54 49° SSW 00:37:05 48° S visible
21 May -3.8 22:09:23 10° WSW 22:12:45 73° S 22:16:07 10° E visible
21 May -3.8 23:46:09 10° W 23:49:28 60° SSW 23:51:01 28° ESE visible
22 May -1.5 01:23:13 10° W 01:23:57 14° WSW 01:23:57 14° WSW visible
22 May -3.8 22:58:40 10° W 23:02:01 70° S 23:05:00 13° ESE visible
23 May -2.6 00:35:34 10° W 00:37:56 27° SW 00:37:56 27° SW visible
23 May -3.8 22:11:12 10° W 22:14:33 75° S 22:17:56 10° E visible
23 May -3.2 23:48:00 10° W 23:51:11 38° SSW 23:51:56 33° S visible
24 May -3.5 23:00:29 10° W 23:03:46 49° SSW 23:05:58 18° SE visible
